Regional Weather Roundup
Issued by NWS Goodland, KS

Home | Current Version | Previous Version | Graphics & Text | Print | Product List | Glossary On
Versions: 1 2 3 4 5 6 7 8 9 10 11 12 13 14 15 16 17 18 19 20 21 22 23 24 25 26 27 28 29 30 31 32 33 34 35 36 37 38 39 40 41 42 43 44 45 46 47 48 49 50
000
ASUS43 KGLD 282359
RWRGLD

GOODLAND FORECAST AREA HOURLY WEATHER ROUNDUP
NATIONAL WEATHER SERVICE GOODLAND KS
600 PM MDT FRI APR 28 2017

...OFFICIAL OBSERVATIONS...

CITY           SKY/WX    TMP DP  RH WIND       PRES   REMARKS
GOODLAND KS    CLOUDY    36  35  96 NE17      29.88R
HILL CITY KS   CLOUDY    41  38  89 NE15      29.90R
IMPERIAL NEB   CLOUDY    38  32  79 NE16      29.94S
MCCOOK NEB     CLOUDY    38  36  92 NE17      29.91S
AKRON CO       MIX PCPN  33  31  92 NE17G28   29.88R VSB 1/4
BURLINGTON CO  NOT AVBL
LIMON CO       CLOUDY    38  34  85 NE28G35   29.79R THUNDER
$$

...UNOFFICIAL OBSERVATIONS...

CITY           SKY/WX    TMP DP  RH WIND       PRES   REMARKS
LENORA KS        N/A     38  32  79 MISG        N/A
NORTON KS      CLOUDY    37  34  87 N13G23    29.89S
SHARON SPRINGS   N/A     41  38  87 NE20G26     N/A
TRENTON NEB      N/A     37  32  82 NE12        N/A
KIT CARSON CO    N/A     39  35  85 MISG        N/A
YUMA CO        CLOUDY    32  32 100 NE21      29.89S WCI  20
$$




USA.gov is the U.S. government's official web portal to all federal, state and local government web resources and services.